Regional Weather Roundup
Issued by NWS

Home | Current Version | Previous Version | Text Only | Print | Product List | Glossary Off
Versions: 1 2 3 4 5 6 7 8 9 10 11 12 13 14 15 16 17 18 19 20 21 22 23 24 25 26 27 28 29 30 31 32 33 34 35 36 37 38 39 40 41 42 43 44 45 46 47 48 49 50

000
ASUS45 KBOI 271110
RWRID
WEATHER ROUNDUP FOR IDAHO
NATIONAL WEATHER SERVICE BOISE ID
400 AM MST SAT DEC 27 2014

NOTE: "FAIR" INDICATES FEW OR NO CLOUDS BELOW 12000 FEET
WITH NO SIGNIFICANT WEATHER AND/OR OBSTRUCTIONS TO VISIBILITY

IDZ012-014-271200-
SOUTHWEST IDAHO


CITY           SKY/WX    TMP DP  RH WIND       PRES   REMARKS
BOISE          CLEAR     22  16  78 SE6       30.33S WCI  14
CALDWELL       CLEAR     21  12  68 N6        30.36S WCI  14
$$

IDZ016-017-271200-
SOUTHCENTRAL IDAHO


CITY           SKY/WX    TMP DP  RH WIND       PRES   REMARKS
BURLEY         CLEAR     16   9  74 SW9       30.28R WCI   4
JEROME         CLEAR     18  13  80 S5        30.29S WCI  11
TWIN FALLS     CLEAR     19  10  68 S14       30.28S WCI   6
$$

IDZ019>023-271200-
SOUTHEAST IDAHO


CITY           SKY/WX    TMP DP  RH WIND       PRES   REMARKS
IDAHO FALLS    CLOUDY    16  13  88 SW13      30.25R FOG     WCI   2
POCATELLO      CLOUDY    22  18  85 SW9       30.28R WCI  12
REXBURG        CLOUDY    15  12  88 S10       30.23R WCI   2
$$

IDZ006-010-011-018-031-032-271200-
CENTRAL IDAHO MOUNTAINS


CITY           SKY/WX    TMP DP  RH WIND       PRES   REMARKS
MCCALL         CLOUDY     8   5  87 CALM      30.23S
HAILEY         PTCLDY     5   0  78 NW9       30.24R WCI  -9
STANLEY          N/A    -11 -17  75 CALM      30.21R
SALMON         CLOUDY    21  10  63 W3        30.25R
CHALLIS        CLEAR      4  -1  80 CALM      30.25R
$$

IDZ002-004-006-007-026-271200-
NORTHERN IDAHO


CITY           SKY/WX    TMP DP  RH WIND       PRES   REMARKS
LEWISTON       CLOUDY    31  25  78 VRB3      30.29F
LOWELL           N/A     32  30  92 CALM      30.35S
COEUR D`ALENE  CLOUDY    30  28  93 S6        30.21F WCI  24
MULLAN PASS    HAZE      20  15  81 VRB5      30.06S VSB 1/2 WCI  13
$$



USA.gov is the U.S. government's official web portal to all federal, state and local government web resources and services.